GW4015 Weather Reports


Display with metric or nautical units.
time (UTC)temp
F
wind
direction
speed
MPH
gust
MPH
rain 1hr
in
rain 24hr
in
rain mn
in
humidity
%
barometer
mb
20260906231050 64 316 7.0 9.0 0.00 0.02 0.02 78 1018.7
20260906230548 64 342 3.0 5.0 0.00 0.02 0.02 78 1018.6
20260906230043 65 58 3.0 9.0 0.00 0.02 0.02 77 1018.7
20260906225536 65 2 3.0 5.0 0.00 0.02 0.02 77 1018.8
20260906225032 65 354 3.0 5.0 0.00 0.02 0.02 76 1019.0
20260906224528 64 19 1.0 5.0 0.00 0.02 0.02 77 1018.7
20260906224024 65 324 4.0 6.0 0.00 0.02 0.02 76 1019.0
20260906223520 65 27 4.0 5.0 0.00 0.02 0.02 78 1019.0
20260906223019 64 54 5.0 6.0 0.00 0.02 0.02 78 1018.8
20260906222508 64 356 4.0 8.0 0.00 0.02 0.02 79 1019.2
20260906222006 64 5 6.0 8.0 0.00 0.02 0.02 80 1018.8
20260906221504 63 27 8.0 12.0 0.00 0.02 0.02 80 1018.8
20260906221000 63 48 7.0 10.0 0.00 0.02 0.02 80 1019.1
20260906220454 63 29 13.0 14.0 0.00 0.02 0.02 80 1019.0
20260906215949 63 50 6.0 13.0 0.00 0.02 0.02 80 1019.0
20260906215448 63 15 7.0 15.0 0.00 0.02 0.02 80 1018.8
20260906214946 64 39 11.0 13.0 0.00 0.02 0.02 80 1018.8
20260906214445 63 32 9.0 15.0 0.00 0.02 0.02 80 1019.1
20260906213945 63 33 11.0 15.0 0.00 0.02 0.02 80 1019.2
20260906213440 63 46 12.0 15.0 0.00 0.02 0.02 80 1019.0
20260906212938 63 34 11.0 13.0 0.00 0.02 0.02 80 1019.0
20260906212433 63 41 11.0 17.0 0.00 0.02 0.02 81 1019.1
20260906211928 63 58 13.0 14.0 0.00 0.02 0.02 80 1019.1
20260906211428 63 32 13.0 17.0 0.00 0.02 0.02 80 1019.1
20260906210922 63 54 15.0 17.0 0.00 0.02 0.02 80 1019.1
20260906210413 63 52 13.0 18.0 0.00 0.02 0.02 80 1019.0
20260906205906 63 37 15.0 22.0 0.00 0.02 0.02 80 1019.1
20260906205403 62 41 8.0 16.0 0.00 0.02 0.02 81 1019.0
20260906204859 63 45 13.0 18.0 0.00 0.02 0.02 80 1019.2
20260906204357 63 43 7.0 15.0 0.00 0.02 0.02 80 1019.1
20260906203857 63 39 13.0 17.0 0.00 0.02 0.02 80 1019.2
20260906203352 63 47 11.0 17.0 0.00 0.02 0.02 80 1019.2
20260906202850 63 42 12.0 15.0 0.00 0.02 0.02 80 1019.1
20260906202343 63 44 12.0 18.0 0.00 0.02 0.02 80 1019.1
20260906201843 62 19 8.0 18.0 0.00 0.02 0.02 80 1019.2
20260906201338 62 6 6.0 16.0 0.00 0.02 0.02 80 1019.3
20260906200833 62 26 12.0 16.0 0.00 0.02 0.02 80 1019.3
20260906200329 62 36 13.0 15.0 0.00 0.02 0.02 80 1019.3
20260906195824 62 33 12.0 18.0 0.00 0.02 0.02 79 1019.1
20260906195321 62 25 15.0 18.0 0.00 0.02 0.02 79 1019.3
20260906194816 63 39 10.0 16.0 0.00 0.02 0.02 78 1019.3
20260906194307 62 1 11.0 17.0 0.00 0.02 0.02 78 1019.2
20260906193806 62 31 14.0 19.0 0.00 0.02 0.02 78 1019.3
20260906193301 62 19 12.0 21.0 0.00 0.02 0.02 77 1019.1
20260906192757 62 46 17.0 23.0 0.00 0.02 0.02 76 1019.1
20260906192251 62 26 14.0 19.0 0.00 0.02 0.02 77 1019.1
20260906191751 63 11 10.0 19.0 0.00 0.02 0.02 77 1019.1
20260906191246 62 49 15.0 24.0 0.00 0.02 0.02 79 1019.1
20260906190745 62 48 13.0 22.0 0.00 0.02 0.02 78 1019.2
20260906190240 62 21 17.0 24.0 0.00 0.02 0.02 78 1019.1
20260906185739 61 35 18.0 26.0 0.00 0.02 0.02 77 1019.2
20260906185238 62 35 15.0 21.0 0.00 0.02 0.02 78 1019.4
20260906184733 62 23 18.0 21.0 0.00 0.02 0.02 78 1019.6
20260906184228 62 42 23.0 25.0 0.00 0.02 0.02 77 1019.5
20260906183724 62 19 9.0 19.0 0.00 0.02 0.02 78 1019.5
20260906183220 62 38 23.0 26.0 0.00 0.02 0.02 77 1019.7
20260906182720 61 19 18.0 23.0 0.00 0.02 0.02 79 1019.3
20260906182216 61 12 12.0 24.0 0.00 0.02 0.02 79 1019.3
20260906181711 61 12 15.0 21.0 0.00 0.02 0.02 81 1019.4
20260906181202 61 25 14.0 25.0 0.00 0.02 0.02 81 1019.3
20260906180701 60 41 19.0 24.0 0.00 0.02 0.02 82 1019.2
20260906180156 59 48 22.0 27.0 0.00 0.02 0.02 85 1019.4
20260906175654 58 52 17.0 22.0 0.00 0.02 0.02 87 1019.8
20260906175150 57 37 14.0 15.0 0.00 0.02 0.02 86 1020.7
20260906174648 57 35 10.0 13.0 0.00 0.02 0.02 87 1020.7
20260906174143 57 8 9.0 12.0 0.00 0.02 0.02 87 1020.8
20260906173638 57 359 7.0 10.0 0.00 0.02 0.02 88 1021.2
20260906173134 57 322 4.0 7.0 0.00 0.02 0.02 90 1021.2
20260906172632 57 301 7.0 9.0 0.00 0.02 0.02 89 1021.5
20260906172128 57 355 9.0 13.0 0.00 0.02 0.02 88 1021.4
20260906171628 57 2 6.0 13.0 0.00 0.02 0.02 89 1021.3
20260906171124 57 23 6.0 11.0 0.00 0.02 0.02 91 1021.3
20260906170620 57 17 6.0 13.0 0.00 0.02 0.02 91 1021.0
20260906170119 57 14 9.0 16.0 0.00 0.02 0.02 91 1021.2
20260906165615 57 21 4.0 16.0 0.00 0.02 0.02 92 1021.2
20260906165111 57 24 14.0 16.0 0.00 0.02 0.02 91 1021.2
20260906164609 57 31 12.0 15.0 0.00 0.02 0.02 92 1021.4
20260906164105 58 47 11.0 17.0 0.00 0.02 0.02 93 1021.4
20260906163601 58 55 9.0 13.0 0.00 0.02 0.02 94 1021.2
20260906163056 58 35 11.0 13.0 0.00 0.02 0.02 94 1021.0
20260906162553 57 50 6.0 12.0 0.00 0.02 0.02 95 1021.0
20260906162048 57 38 6.0 11.0 0.00 0.02 0.02 95 1021.0
20260906161543 57 39 5.0 6.0 0.00 0.02 0.02 95 1020.9
20260906161042 56 53 5.0 8.0 0.00 0.02 0.02 95 1021.3
20260906160541 56 50 5.0 9.0 0.00 0.02 0.02 95 1021.2
20260906160040 56 29 6.0 7.0 0.00 0.02 0.02 95 1021.3
20260906155538 55 20 3.0 5.0 0.02 0.02 0.02 94 1021.4
20260906155035 55 11 6.0 7.0 0.02 0.02 0.02 94 1021.6
20260906154530 55 359 5.0 8.0 0.05 0.02 0.02 94 1021.6
20260906154028 55 351 5.0 8.0 0.07 0.01 0.01 93 1021.7
20260906153527 55 358 5.0 10.0 0.02 0.00 0.00 92 1022.0
20260906153023 56 344 8.0 10.0 0.00 0.00 0.00 91 1021.9
20260906152517 56 325 9.0 11.0 0.00 0.00 0.00 91 1021.9
20260906152016 55 341 9.0 12.0 0.00 0.00 0.00 91 1022.0
20260906151512 55 352 6.0 10.0 0.00 0.00 0.00 92 1022.0
20260906151008 55 329 10.0 16.0 0.00 0.00 0.00 91 1022.0
20260906150503 55 317 10.0 16.0 0.00 0.00 0.00 91 1021.8
20260906150002 55 327 13.0 18.0 0.00 0.00 0.00 91 1021.7
20260906145501 58 318 8.0 12.0 0.00 0.00 0.00 92 1022.3
20260906144956 58 330 5.0 10.0 0.00 0.00 0.00 91 1022.0
20260906144450 58 9 7.0 11.0 0.00 0.00 0.00 92 1021.7
20260906143945 58 56 7.0 15.0 0.00 0.00 0.00 92 1021.7
20260906143441 57 65 10.0 19.0 0.00 0.00 0.00 92 1021.7
20260906142936 57 59 15.0 20.0 0.00 0.00 0.00 93 1021.4
20260906142431 57 61 13.0 21.0 0.00 0.00 0.00 93 1021.0
20260906141926 57 51 16.0 18.0 0.00 0.00 0.00 93 1021.3
20260906141425 57 55 8.0 17.0 0.00 0.00 0.00 93 1021.6
20260906140920 57 65 15.0 17.0 0.00 0.00 0.00 93 1021.5
20260906140414 57 58 11.0 16.0 0.00 0.00 0.00 93 1021.7
20260906135913 57 63 15.0 21.0 0.00 0.00 0.00 93 1021.5
20260906135412 57 61 13.0 22.0 0.00 0.00 0.00 93 1021.4
20260906134908 57 53 14.0 18.0 0.00 0.00 0.00 92 1021.2
20260906134403 57 59 10.0 17.0 0.00 0.00 0.00 92 1021.6
20260906133857 57 54 11.0 18.0 0.00 0.00 0.00 92 1021.4
20260906133353 57 59 16.0 19.0 0.00 0.00 0.00 93 1021.2
20260906132849 56 59 16.0 19.0 0.00 0.00 0.00 93 1020.9
20260906132344 56 57 16.0 20.0 0.00 0.00 0.00 94 1021.0
20260906131840 56 63 18.0 20.0 0.00 0.00 0.00 94 1021.0
20260906131336 56 57 13.0 19.0 0.00 0.00 0.00 93 1020.9
20260906130831 56 57 17.0 19.0 0.00 0.00 0.00 93 1021.0
20260906130330 56 58 14.0 19.0 0.00 0.00 0.00 93 1021.5
20260906125830 56 59 15.0 19.0 0.00 0.00 0.00 93 1021.7
20260906125327 56 56 12.0 20.0 0.00 0.00 0.00 93 1021.5
20260906124822 56 48 15.0 19.0 0.00 0.00 0.00 94 1021.4
20260906124318 56 43 12.0 20.0 0.00 0.00 0.00 93 1021.5
20260906123817 56 41 11.0 22.0 0.00 0.00 0.00 93 1021.6
20260906123312 56 37 14.0 20.0 0.00 0.00 0.00 94 1021.4
20260906122811 55 38 16.0 20.0 0.00 0.00 0.00 94 1021.4
20260906122307 55 30 16.0 21.0 0.00 0.00 0.00 94 1021.4
20260906121803 55 31 15.0 22.0 0.00 0.00 0.00 94 1021.2
20260906121259 55 45 14.0 20.0 0.00 0.00 0.00 94 1021.2
20260906120755 55 37 15.0 19.0 0.00 0.00 0.00 95 1021.4
20260906120251 55 38 11.0 17.0 0.00 0.00 0.00 95 1021.4
20260906115746 55 27 15.0 20.0 0.00 0.00 0.00 95 1021.6
20260906115241 55 36 16.0 20.0 0.00 0.00 0.00 95 1021.6
20260906114740 55 33 15.0 17.0 0.00 0.00 0.00 94 1021.6
20260906114237 55 29 17.0 22.0 0.00 0.00 0.00 94 1021.4
20260906113732 55 39 13.0 25.0 0.00 0.00 0.00 94 1021.3
20260906113231 55 42 15.0 22.0 0.00 0.00 0.00 94 1021.4
20260906112730 55 40 19.0 22.0 0.00 0.00 0.00 94 1021.4
20260906112227 55 40 16.0 23.0 0.00 0.00 0.00 94 1021.5
20260906111726 55 45 14.0 22.0 0.00 0.00 0.00 94 1021.6
20260906111221 55 35 15.0 22.0 0.00 0.00 0.00 94 1021.7
20260906110716 55 30 16.0 21.0 0.00 0.00 0.00 93 1021.5
20260906110212 55 37 20.0 22.0 0.00 0.00 0.00 93 1021.5
20260906105705 55 40 12.0 23.0 0.00 0.00 0.00 93 1021.6
20260906105202 55 37 24.0 27.0 0.00 0.00 0.00 93 1021.4
20260906104701 55 34 16.0 22.0 0.00 0.00 0.00 93 1021.6
20260906104200 55 19 12.0 22.0 0.00 0.00 0.00 93 1021.6
20260906103658 55 30 19.0 26.0 0.00 0.00 0.00 93 1021.6
20260906103153 55 38 11.0 25.0 0.00 0.00 0.00 92 1021.4
20260906102649 55 33 21.0 25.0 0.00 0.00 0.00 93 1021.6
20260906102148 55 31 13.0 24.0 0.00 0.00 0.00 92 1021.7
20260906101648 55 21 17.0 20.0 0.00 0.00 0.00 93 1021.9
20260906101143 55 22 15.0 21.0 0.00 0.00 0.00 93 1022.0
20260906100638 55 16 15.0 25.0 0.00 0.00 0.00 93 1021.8
20260906100133 55 2 13.0 22.0 0.00 0.00 0.00 93 1021.8
20260906095628 55 31 17.0 24.0 0.00 0.00 0.00 93 1021.5
20260906095124 55 26 17.0 25.0 0.00 0.00 0.00 94 1021.4
20260906094622 55 16 13.0 22.0 0.00 0.00 0.00 94 1021.6
20260906094119 55 15 19.0 21.0 0.00 0.00 0.00 94 1021.5
20260906093614 55 28 16.0 22.0 0.00 0.00 0.00 94 1021.9
20260906093114 55 11 14.0 21.0 0.00 0.00 0.00 94 1021.8
20260906092609 55 22 14.0 21.0 0.00 0.00 0.00 94 1021.8
20260906092104 55 9 16.0 19.0 0.00 0.00 0.00 93 1021.9
20260906091600 55 350 16.0 22.0 0.00 0.00 0.00 93 1022.2
20260906091057 55 328 18.0 22.0 0.00 0.00 0.00 93 1022.3
20260906090557 55 343 14.0 17.0 0.00 0.00 0.00 93 1022.3
20260906090056 55 332 11.0 21.0 0.00 0.00 0.00 92 1022.5
20260906085555 55 5 14.0 24.0 0.00 0.00 0.00 92 1022.4
20260906085050 55 31 17.0 25.0 0.00 0.00 0.00 91 1021.9
20260906084545 55 32 22.0 25.0 0.00 0.00 0.00 91 1022.0
20260906084044 55 32 22.0 31.0 0.00 0.00 0.00 91 1022.3
20260906083540 55 26 17.0 33.0 0.00 0.00 0.00 91 1021.8
20260906083039 55 21 14.0 31.0 0.00 0.00 0.00 91 1022.0
20260906082535 55 34 29.0 30.0 0.00 0.00 0.00 92 1022.4
20260906082031 55 26 25.0 32.0 0.00 0.00 0.00 91 1022.3
20260906081526 55 35 19.0 27.0 0.00 0.00 0.00 91 1022.3
20260906081021 55 39 19.0 27.0 0.00 0.00 0.00 91 1022.3
20260906080517 55 29 19.0 27.0 0.00 0.00 0.00 90 1022.3
20260906080013 56 25 19.0 29.0 0.00 0.00 0.00 90 1022.4
20260906075507 56 30 27.0 30.0 0.00 0.00 0.00 89 1022.2
20260906075002 56 41 24.0 27.0 0.00 0.00 0.00 89 1022.3
20260906074457 56 31 20.0 27.0 0.00 0.00 0.00 89 1022.3
20260906073955 56 44 22.0 33.0 0.00 0.00 0.00 88 1022.3
20260906073450 56 39 20.0 27.0 0.00 0.00 0.00 89 1022.3
20260906072947 56 44 19.0 30.0 0.00 0.00 0.00 89 1022.3
20260906072442 57 42 25.0 29.0 0.00 0.00 0.00 88 1022.4
20260906071938 57 44 19.0 32.0 0.00 0.00 0.00 88 1022.4
20260906071434 57 39 16.0 29.0 0.00 0.00 0.00 87 1022.6
20260906070929 57 21 18.0 31.0 0.00 0.00 0.00 87 1022.5
20260906070425 57 33 21.0 30.0 0.00 0.00 0.00 87 1022.6
20260906065921 57 29 23.0 26.0 0.00 0.00 0.00 88 1022.7
20260906065415 57 33 19.0 29.0 0.00 0.00 0.00 87 1022.9
20260906064911 57 33 16.0 26.0 0.00 0.00 0.00 87 1022.9
20260906064407 57 38 22.0 30.0 0.00 0.00 0.00 87 1023.0
20260906063906 57 17 20.0 27.0 0.00 0.00 0.00 88 1023.0
20260906063356 57 27 17.0 25.0 0.00 0.00 0.00 87 1023.1
20260906062851 57 21 18.0 24.0 0.00 0.00 0.00 87 1023.0
20260906062350 57 23 14.0 26.0 0.00 0.00 0.00 87 1023.0
20260906061846 57 33 22.0 31.0 0.00 0.00 0.00 87 1022.9
20260906061342 57 33 9.0 15.0 0.00 0.00 0.00 88 1022.9
20260906060837 57 26 7.0 19.0 0.00 0.00 0.00 88 1023.1
20260906060335 57 28 14.0 22.0 0.00 0.00 0.00 88 1022.8
20260906055830 57 26 14.0 22.0 0.00 0.09 0.09 88 1022.8
20260906055326 57 21 14.0 23.0 0.00 0.09 0.09 88 1023.1
20260906054821 57 26 12.0 19.0 0.00 0.09 0.09 88 1023.1
20260906054315 57 24 16.0 20.0 0.00 0.09 0.09 88 1022.9
20260906053812 57 29 21.0 24.0 0.00 0.09 0.09 87 1022.7
20260906053307 57 25 12.0 23.0 0.00 0.09 0.09 87 1022.6
20260906052802 57 10 15.0 26.0 0.00 0.09 0.09 87 1022.7
20260906052259 57 21 16.0 20.0 0.00 0.09 0.09 87 1022.7
20260906051756 57 23 16.0 21.0 0.00 0.09 0.09 87 1022.9
20260906051255 57 27 10.0 22.0 0.00 0.09 0.09 87 1022.9
20260906050750 57 15 13.0 22.0 0.00 0.09 0.09 87 1022.8
20260906050246 57 7 12.0 21.0 0.00 0.09 0.09 87 1022.5
20260906045744 57 21 14.0 22.0 0.00 0.09 0.09 87 1022.7
20260906045239 57 24 16.0 21.0 0.00 0.09 0.09 86 1022.6
20260906044735 57 3 10.0 16.0 0.00 0.09 0.09 86 1023.4
20260906044230 57 3 16.0 17.0 0.00 0.09 0.09 86 1023.4
20260906043726 57 9 9.0 21.0 0.00 0.09 0.09 85 1022.8
20260906043222 57 10 13.0 20.0 0.00 0.09 0.09 85 1022.4
20260906042721 57 13 17.0 21.0 0.00 0.09 0.09 85 1022.4
20260906042220 57 12 14.0 21.0 0.00 0.09 0.09 86 1022.2
20260906041716 57 17 20.0 23.0 0.00 0.09 0.09 85 1022.2
20260906041211 57 16 17.0 26.0 0.00 0.09 0.09 85 1022.0
20260906040707 57 15 12.0 22.0 0.00 0.09 0.09 86 1022.0
20260906040202 57 6 10.0 23.0 0.00 0.09 0.09 85 1022.2
20260906035657 57 4 16.0 23.0 0.00 0.09 0.09 84 1022.3
20260906035153 57 19 14.0 20.0 0.00 0.09 0.09 85 1022.6
20260906034647 57 5 12.0 21.0 0.00 0.09 0.09 85 1022.6
20260906034142 57 18 14.0 21.0 0.00 0.09 0.09 85 1022.7
20260906033637 57 14 12.0 21.0 0.12 0.09 0.09 86 1022.6
20260906033132 57 8 16.0 24.0 0.40 0.09 0.09 86 1022.6
20260906032629 58 13 12.0 27.0 0.12 0.04 0.04 84 1022.7
20260906032128 60 359 13.0 19.0 0.00 0.02 0.02 72 1023.4
20260906031624 60 348 13.0 21.0 0.00 0.02 0.02 72 1023.3
20260906031119 60 18 17.0 25.0 0.00 0.02 0.02 72 1022.2
20260906030618 60 31 17.0 30.0 0.00 0.02 0.02 72 1022.0
20260906030114 60 31 27.0 29.0 0.00 0.02 0.02 71 1021.7
20260906025613 60 31 14.0 26.0 0.00 0.02 0.02 71 1021.7
20260906025112 60 30 19.0 30.0 0.00 0.02 0.02 71 1021.5
20260906024607 60 25 18.0 32.0 0.00 0.02 0.02 71 1021.3
20260906024101 60 19 22.0 27.0 0.00 0.02 0.02 70 1021.5
20260906023557 60 21 21.0 32.0 0.00 0.02 0.02 70 1021.3
20260906023052 60 26 25.0 28.0 0.00 0.02 0.02 69 1021.3
20260906022547 60 37 25.0 33.0 0.00 0.02 0.02 70 1021.0
20260906022042 60 32 19.0 25.0 0.00 0.02 0.02 70 1021.2
20260906021538 60 22 17.0 27.0 0.00 0.02 0.02 69 1021.4
20260906021036 61 35 23.0 28.0 0.00 0.02 0.02 69 1021.4
20260906020531 61 20 16.0 26.0 0.00 0.02 0.02 68 1021.3
20260906020031 61 23 18.0 26.0 0.00 0.02 0.02 68 1021.4
20260906015529 61 25 23.0 28.0 0.00 0.02 0.02 67 1021.4
20260906015024 61 38 18.0 24.0 0.00 0.02 0.02 67 1021.4
20260906014519 62 29 19.0 25.0 0.00 0.02 0.02 67 1021.4
20260906014015 62 30 13.0 24.0 0.00 0.02 0.02 66 1021.3
20260906013509 62 18 16.0 26.0 0.00 0.02 0.02 65 1021.3
20260906013000 63 51 16.0 20.0 0.00 0.02 0.02 64 1021.3
20260906012455 63 19 13.0 21.0 0.00 0.02 0.02 63 1021.2
20260906011954 64 25 22.0 24.0 0.00 0.02 0.02 62 1021.4
20260906011450 64 27 9.0 20.0 0.00 0.02 0.02 61 1021.4
20260906010944 65 29 14.0 19.0 0.00 0.02 0.02 60 1021.4
20260906010441 65 14 11.0 19.0 0.00 0.02 0.02 59 1021.3
20260906005937 65 27 10.0 19.0 0.00 0.02 0.02 58 1021.3
20260906005435 66 24 8.0 20.0 0.00 0.02 0.02 57 1021.5
20260906004928 66 21 16.0 20.0 0.00 0.02 0.02 57 1021.4
20260906004423 66 357 13.0 18.0 0.00 0.02 0.02 56 1021.5
20260906003919 67 11 11.0 20.0 0.00 0.02 0.02 55 1021.2
20260906003414 68 1 11.0 20.0 0.00 0.02 0.02 54 1021.5
20260906002908 68 16 17.0 21.0 0.00 0.02 0.02 53 1021.5
20260906002403 69 3 14.0 21.0 0.00 0.02 0.02 54 1021.5
20260906001858 69 20 17.0 19.0 0.00 0.02 0.02 52 1021.6
20260906001353 69 15 14.0 20.0 0.00 0.02 0.02 51 1021.4
20260906000848 69 19 10.0 17.0 0.00 0.02 0.02 51 1021.5
20260906000348 69 0 7.0 19.0 0.00 0.02 0.02 51 1021.6
20260905235843 69 22 13.0 20.0 0.00 0.02 0.02 51 1021.5
20260905235337 70 348 10.0 15.0 0.00 0.02 0.02 50 1021.8
20260905234833 70 40 17.0 20.0 0.00 0.02 0.02 50 1021.9
20260905234328 71 30 15.0 19.0 0.00 0.02 0.02 48 1021.8
20260905233823 70 13 7.0 15.0 0.00 0.02 0.02 48 1021.7
20260905233318 72 55 13.0 17.0 0.00 0.02 0.02 46 1021.7
20260905232817 72 46 11.0 20.0 0.00 0.02 0.02 46 1021.8
20260905232313 71 359 9.0 15.0 0.00 0.02 0.02 44 1021.7
20260905231809 73 359 9.0 13.0 0.00 0.02 0.02 43 1021.9